Phuket, Thailand

12:18 PM +07 on November 18, 2017 (GMT +0700)
Phuket International

Weather History for VTSP - July, 2012

Change the Weather History Date:

Wednesday, July 11, 2012

  Actual Average Record
Temperature  
Mean Temperature 80 °F -  
Max Temperature 86 °F 88 °F 95 °F (1996)
Min Temperature 75 °F 78 °F 71 °F (1996)
Cooling Degree Days 16    
Growing Degree Days 30 (Base 50)    
Moisture  
Dew Point 74 °F    
Average Humidity 76    
Maximum Humidity 89    
Minimum Humidity 66    
Precipitation  
Precipitation 0.00 in 0.37 in - ()
Sea Level Pressure  
Sea Level Pressure 29.78 in    
Wind  
Wind Speed 8 mph ()    
Max Wind Speed 20 mph    
Max Gust Speed -    
Visibility 5.1 miles    
Events Rain    
Averages and records for this station are not official NWS values.
T = Trace of Precipitation, MM = Missing Value Source: Averaged Metar Reports

Daily Weather History Graph

Daily Weather History Graph

Search for Another Location

Airport or City:

Trip Planner

Search our weather history database for the weather conditions in past years. The results will help you decide how hot, cold, wet, or windy it might be!

Date:

Astronomy

Jul. 11, 2012 Rise Set
Actual Time 6:15 AM +07 6:49 PM +07
Civil Twilight 5:52 AM +07 7:11 PM +07
Nautical Twilight 5:26 AM +07 7:38 PM +07
Astronomical Twilight 4:59 AM +07 8:05 PM +07
Moon No Moon Rise 12:27 PM +07 (7/11)
Length of Visible Light 13h 19m
Length of Day
12h 33m
Waning Gibbous, 49% of the Moon is Illuminated
Jul 11
Waning Gibbous
Jul 19
New
Jul 26
First Quarter
Aug 2
Full
Aug 10
Last Quarter

Hourly Weather History & Observations

Time (+07) Temp. Heat Index Dew Point Humidity Pressure Visibility Wind Dir Wind Speed Gust Speed Precip Events Conditions
12:00 AM 82.4 °F 88.2 °F 73.4 °F 74% 29.83 in 5.0 mi West 17.3 mph - N/A   Mostly Cloudy
12:30 AM 82.4 °F 88.2 °F 73.4 °F 74% 29.83 in 5.0 mi West 19.6 mph - N/A   Mostly Cloudy
1:00 AM 83 °F - 77 °F 77% 29.76 in 6 mi West 9.2 mph - -   Scattered Clouds
1:00 AM 82.4 °F 88.2 °F 73.4 °F 74% 29.80 in 5.0 mi West 15.0 mph - N/A   Mostly Cloudy
2:30 AM 78.8 °F - 75.2 °F 89% 29.77 in 5.0 mi West 11.5 mph - N/A   Mostly Cloudy
3:30 AM 80.6 °F 85.4 °F 73.4 °F 79% 29.77 in 5.0 mi West 16.1 mph - N/A   Mostly Cloudy
5:00 AM 80.6 °F 86.2 °F 75.2 °F 84% 29.77 in 5.0 mi West 12.7 mph - N/A   Mostly Cloudy
5:30 AM 80.6 °F 86.2 °F 75.2 °F 84% 29.77 in 5.0 mi West 11.5 mph - N/A   Mostly Cloudy
6:00 AM 80.6 °F 86.2 °F 75.2 °F 84% 29.77 in 5.0 mi West 11.5 mph - N/A Rain Light Rain
6:30 AM 78.8 °F - 75.2 °F 89% 29.80 in 5.0 mi NNW 5.8 mph - N/A   Mostly Cloudy
7:00 AM 82 °F - 77 °F 79% 29.75 in 6 mi Calm Calm - -   Partly Cloudy
7:00 AM 78.8 °F - 75.2 °F 89% 29.80 in 5.0 mi ENE 5.8 mph - N/A   Mostly Cloudy
7:30 AM 78.8 °F - 75.2 °F 89% 29.83 in 5.0 mi Calm Calm - N/A   Mostly Cloudy
8:00 AM 78.8 °F - 75.2 °F 89% 29.83 in 5.0 mi Calm Calm - N/A Rain Light Rain
8:30 AM 80.6 °F 86.2 °F 75.2 °F 84% 29.83 in 5.0 mi Calm Calm - N/A   Mostly Cloudy
9:00 AM 80.6 °F 87.1 °F 77.0 °F 89% 29.83 in 5.0 mi Calm Calm - N/A   Mostly Cloudy
9:30 AM 82.4 °F 89.5 °F 75.2 °F 79% 29.83 in 5.0 mi Calm Calm - N/A   Mostly Cloudy
10:00 AM 82.4 °F 89.5 °F 75.2 °F 79% 29.83 in 5.0 mi Calm Calm - N/A   Mostly Cloudy
10:30 AM 84.2 °F 94.1 °F 77.0 °F 79% 29.83 in 5.0 mi Variable 4.6 mph - N/A   Mostly Cloudy
11:30 AM 86.0 °F 95.1 °F 75.2 °F 70% 29.83 in 5.0 mi WSW 9.2 mph - N/A   Mostly Cloudy
12:00 PM 86.0 °F 96.9 °F 77.0 °F 74% 29.83 in 5.0 mi SSW 8.1 mph - N/A   Mostly Cloudy
12:30 PM 84.2 °F 92.3 °F 75.2 °F 74% 29.80 in 5.0 mi WSW 8.1 mph - N/A   Mostly Cloudy
1:00 PM 85 °F - 77 °F 72% 29.78 in 6 mi WSW 3.5 mph - -   Mist
1:00 PM 84.2 °F 90.9 °F 73.4 °F 70% 29.80 in 5.0 mi WSW 11.5 mph - N/A   Mostly Cloudy
1:30 PM 86.0 °F 93.4 °F 73.4 °F 66% 29.80 in 5.0 mi West 10.4 mph - N/A   Mostly Cloudy
2:00 PM 84.2 °F 92.3 °F 75.2 °F 74% 29.77 in 5.0 mi SSW 6.9 mph - N/A   Mostly Cloudy
2:30 PM 84.2 °F 90.9 °F 73.4 °F 70% 29.77 in 5.0 mi WSW 8.1 mph - N/A   Mostly Cloudy
3:00 PM 84.2 °F 90.9 °F 73.4 °F 70% 29.74 in 5.0 mi SW 5.8 mph - N/A   Mostly Cloudy
3:30 PM 84.2 °F 90.9 °F 73.4 °F 70% 29.74 in 5.0 mi SW 5.8 mph - N/A   Mostly Cloudy
4:00 PM 84.2 °F 92.3 °F 75.2 °F 74% 29.74 in 5.0 mi WSW 9.2 mph - N/A   Mostly Cloudy
4:30 PM 84.2 °F 92.3 °F 75.2 °F 74% 29.71 in 5.0 mi West 12.7 mph - N/A   Mostly Cloudy
5:00 PM 84.2 °F 90.9 °F 73.4 °F 70% 29.71 in 5.0 mi WSW 12.7 mph - N/A   Mostly Cloudy
5:30 PM 84.2 °F 90.9 °F 73.4 °F 70% 29.71 in 5.0 mi West 12.7 mph - N/A   Mostly Cloudy
6:00 PM 84.2 °F 90.9 °F 73.4 °F 70% 29.71 in 5.0 mi West 11.5 mph - N/A   Mostly Cloudy
6:30 PM 82.4 °F 87.2 °F 71.6 °F 70% 29.71 in 5.0 mi WSW 6.9 mph - N/A   Mostly Cloudy
7:00 PM 83 °F - 75 °F 70% 29.70 in 6 mi WSW 4.6 mph - -   Mist
7:00 PM 82.4 °F 88.2 °F 73.4 °F 74% 29.74 in 5.0 mi SW 4.6 mph - N/A   Mostly Cloudy
7:30 PM 82.4 °F 88.2 °F 73.4 °F 74% 29.74 in 5.0 mi SW 5.8 mph - N/A   Mostly Cloudy
8:00 PM 82.4 °F 88.2 °F 73.4 °F 74% 29.77 in 5.0 mi West 5.8 mph - N/A   Mostly Cloudy
8:30 PM 82.4 °F 88.2 °F 73.4 °F 74% 29.77 in 5.0 mi Variable 3.5 mph - N/A   Mostly Cloudy
9:00 PM 82.4 °F 88.2 °F 73.4 °F 74% 29.77 in 5.0 mi Variable 5.8 mph - N/A   Mostly Cloudy
9:30 PM 82.4 °F 88.2 °F 73.4 °F 74% 29.80 in 5.0 mi Variable 5.8 mph - N/A   Mostly Cloudy
10:00 PM 82.4 °F 88.2 °F 73.4 °F 74% 29.80 in 5.0 mi WSW 5.8 mph - N/A   Mostly Cloudy
10:30 PM 82.4 °F 88.2 °F 73.4 °F 74% 29.80 in 5.0 mi Variable 6.9 mph - N/A   Mostly Cloudy
11:00 PM 82.4 °F 88.2 °F 73.4 °F 74% 29.83 in 5.0 mi Variable 3.5 mph - N/A   Mostly Cloudy
11:30 PM 82.4 °F 88.2 °F 73.4 °F 74% 29.80 in 5.0 mi Variable 3.5 mph - N/A   Mostly Cloudy